2023-001J (55017 NORAD) Tracking and Keplerian Element Data

This shows tracking and keplerian element data for the satellite.

Feedback or suggestion? Click here.




ElementValue
Catalog55017
Name2023-001J
Epoch Orbit169
Epoch Day13.78756245
Epoch Year2023
RAAN75.7228
Inclination97.4979
Eccentricity0.0010839
Argument of Perigee183.6827
Mean Anonmoly176.4326
Mean Motion15.12320145
Decay Rate0.0001579
L11 55017U 23001J 23013.78756245 .00015790 00000+0 91273-3 0 9993
L22 55017 97.4979 75.7228 0010839 183.6827 176.4326 15.12320145 1691



Live tracking and technical data element details for 2023-001J (NORAD 55017). 2023-001J can be tracked NOW for your location showing map with azimuth and elevation plus other details from your city location.







IsCatalogInMostPopularTable: catalog: 55017, numindb: 3
Update: records affected: 1



GetName: 55017 2023-001J

Hit Count: updated at: Tue, 07 Feb 2023 14:10:41 GMT